Meteo Giornale » Osservazioni meteo Italia » Bari-Palese Macchie

ore: 21:20 - Osservazioni Meteo Bari-Palese Macchie
Lat. 41° 8' N Lon. 16° 47' E Alt. 34 metri s.l.m.

sereno

27 °C

Sereno

Temp. 24 Ore

26 °C

30 °C

Nord

3.7 Km/h

Dew point 26 °C

Umidità 94 %

Visibilità  10 Km

Il sole sorge alle ore 06:18

Il sole tramonta alle ore 19:27

Data e Ora Cielo e Fenomeni T °C DP °C Um. % Pres. hPa Vis. km Vento km/h
Oggi h: 21:20 sereno Sereno 27 26 94 1013 10 N 3.7
Oggi h: 20:50 sereno Sereno 27 26 94 1013 10 N 1.8
Oggi h: 20:20 sereno Sereno 28 26 88 1013 10 N 1.8
Oggi h: 19:50 poco_nuvoloso Poco Nuvoloso 28 26 88 1013 10 N 5.5
Oggi h: 19:20 poco_nuvoloso Poco Nuvoloso 28 25 83 1013 10 N 5.5
Oggi h: 18:50 nuvoloso Nuvoloso 28 25 83 1013 10 N 3.7
Oggi h: 18:20 molto_nuvoloso Molto Nuvoloso 29 26 83 1013 10 N 5.5
Oggi h: 17:50 molto_nuvoloso Molto Nuvoloso 29 26 83 1013 10 N 9.3
Oggi h: 17:20 nuvoloso Nuvoloso 29 26 83 1013 10 N/NE 13
Oggi h: 16:50 poco_nuvoloso Poco Nuvoloso 30 26 79 1013 10 N 11.1
Oggi h: 16:20 nuvoloso Nuvoloso 29 27 89 1013 10 N 11.1
Oggi h: 15:50 poco_nuvoloso Poco Nuvoloso 30 25 74 1013 10 N 11.1
Oggi h: 15:20 poco_nuvoloso Poco Nuvoloso 30 27 84 1013 10 N/NE 16.7
Oggi h: 14:50 poco_nuvoloso Poco Nuvoloso 30 25 74 1013 10 N 13
Oggi h: 14:20 poco_nuvoloso Poco Nuvoloso 30 24 70 1013 10 N 13
Oggi h: 09:20 poco_nuvoloso Poco Nuvoloso 29 23 70 1013 10 N/NO 13
Oggi h: 08:50 poco_nuvoloso Poco Nuvoloso 29 23 70 1013 10 O/NO 11.1
Oggi h: 08:20 poco_nuvoloso Poco Nuvoloso 28 23 74 1013 10 O 11.1
Oggi h: 07:50 poco_nuvoloso Poco Nuvoloso 27 23 78 1013 10 O 11.1
Oggi h: 07:20 poco_nuvoloso Poco Nuvoloso 26 23 83 1013 10 O 11.1
Oggi h: 06:50 poco_nuvoloso Poco Nuvoloso 26 23 83 1013 10 O 9.3
Oggi h: 06:20 poco_nuvoloso Poco Nuvoloso 26 23 83 1013 10 O 11.1
Oggi h: 05:50 nuvoloso Nuvoloso 26 23 83 1013 10 O 14.8
Oggi h: 05:20 molto_nuvoloso Molto Nuvoloso 26 23 83 1013 10 O 13
Oggi h: 04:50 molto_nuvoloso Molto Nuvoloso 27 24 83 1013 10 O 13
Oggi h: 04:20 nuvoloso Nuvoloso 27 24 83 1013 10 O 13
Oggi h: 03:50 molto_nuvoloso Molto Nuvoloso 27 24 83 1013 10 O 13
Oggi h: 03:20 molto_nuvoloso Molto Nuvoloso 27 24 83 1013 10 O 11.1
Oggi h: 02:50 molto_nuvoloso Molto Nuvoloso 27 24 83 1013 10 O/NO 11.1
Oggi h: 02:20 molto_nuvoloso Molto Nuvoloso 27 24 83 1013 10 O 13
Oggi h: 01:50 poco_nuvoloso Poco Nuvoloso 27 24 83 1012 10 O/NO 14.8
Oggi h: 01:20 sereno Sereno 28 24 78 1012 10 O/NO 16.7
Oggi h: 00:50 poco_nuvoloso Poco Nuvoloso 28 25 83 1012 10 O/NO 16.7
Oggi h: 00:20 molto_nuvoloso Molto Nuvoloso 28 26 88 1012 10 O/NO 16.7
Ieri h: 23:50 molto_nuvoloso Molto Nuvoloso 28 26 88 1012 10 O 18.5
Ieri h: 23:20 nuvoloso Nuvoloso 28 26 88 1012 10 O 14.8
Ieri h: 22:50 poco_nuvoloso Poco Nuvoloso 28 26 88 1012 10 O 16.7
Ieri h: 22:20 sereno Sereno 29 25 79 1012 10 O 13
Ieri h: 21:50 sereno Sereno 29 25 79 1011 10 O 11.1